Memphis, TN

7:28 AM CDT on September 28, 2016 (GMT -0500)
Memphis International

Weather History for KMEM - April, 2013

Change the Weather History Date:

Thursday, April 11, 2013

  Actual Average Record
Temperature  
Mean Temperature 56 °F 62 °F  
Max Temperature 68 °F 72 °F 86 °F (2001)
Min Temperature 43 °F 51 °F 30 °F (1973)
Degree Days  
Heating Degree Days 9 5  
Month to date heating degree days 87 72  
Since 1 July heating degree days 2791 2880  
Cooling Degree Days 0 2  
Month to date cooling degree days 27 20  
Year to date cooling degree days 38 40  
Moisture  
Dew Point 52 °F    
Average Humidity 86    
Maximum Humidity 97    
Minimum Humidity 74    
Precipitation  
Precipitation 2.32 in 0.19 in 3.40 in (1979)
Month to date precipitation 3.50 1.94  
Year to date precipitation 20.45 15.47  
Snow  
Snow 0.00 in 0.00 in - ()
Month to date snowfall 0.0 0.0  
Since 1 July snowfall 0.9 3.8  
Snow Depth 0.00 in    
Sea Level Pressure  
Sea Level Pressure 29.74 in    
Wind  
Wind Speed 7 mph (West)    
Max Wind Speed 17 mph    
Max Gust Speed 25 mph    
Visibility 6 miles    
Events Fog , Rain , Thunderstorm    
T = Trace of Precipitation, MM = Missing Value Source: NWS Daily Summary

Daily Weather History Graph

Daily Weather History Graph

Search for Another Location

Airport or City:

Trip Planner

Search our weather history database for the weather conditions in past years. The results will help you decide how hot, cold, wet, or windy it might be!

Date:

Astronomy

Apr. 11, 2013 Rise Set
Actual Time 6:32 AM CDT 7:29 PM CDT
Civil Twilight 6:06 AM CDT 7:55 PM CDT
Nautical Twilight 5:36 AM CDT 8:26 PM CDT
Astronomical Twilight 5:04 AM CDT 8:57 PM CDT
Moon 7:07 AM CDT (4/11) 8:59 PM CDT (4/11)
Length of Visible Light 13h 48m
Length of Day
12h 56m
New Moon, 2% of the Moon is Illuminated
Apr 11
New Moon
Apr 18
First Quarter
Apr 25
Full
May 2
Last Quarter
May 9
New

Hourly Weather History & Observations

Time (CDT) Temp. Windchill Dew Point Humidity Pressure Visibility Wind Dir Wind Speed Gust Speed Precip Events Conditions
12:23 AM 68.0 °F - 66.2 °F 94% 29.72 in 1.5 mi WSW 11.5 mph - 0.21 in Rain , Thunderstorm Heavy Thunderstorms and Rain
12:34 AM 69.8 °F - 66.2 °F 88% 29.72 in 3.0 mi SSW 21.9 mph 28.8 mph 0.35 in Rain , Thunderstorm Thunderstorms and Rain
12:38 AM 69.8 °F - 66.2 °F 88% 29.72 in 3.0 mi SSW 16.1 mph 28.8 mph 0.36 in Rain , Thunderstorm Thunderstorms and Rain
12:52 AM 69.8 °F - 66.2 °F 88% 29.72 in 2.0 mi SSW 13.8 mph 24.2 mph 0.52 in Rain , Thunderstorm Heavy Thunderstorms and Rain
12:54 AM 69.1 °F - 66.0 °F 90% 29.72 in 2.0 mi SW 15.0 mph 27.6 mph 0.54 in Rain , Thunderstorm Heavy Thunderstorms and Rain
1:01 AM 68.0 °F - 66.2 °F 94% 29.74 in 0.5 mi SW 12.7 mph 27.6 mph 0.10 in Fog , Rain , Thunderstorm Heavy Thunderstorms and Rain
1:09 AM 68.0 °F - 66.2 °F 94% 29.74 in 1.0 mi SSW 13.8 mph 23.0 mph 0.35 in Rain , Thunderstorm Heavy Thunderstorms and Rain
1:13 AM 68.0 °F - 66.2 °F 94% 29.75 in 2.0 mi SSW 11.5 mph 23.0 mph 0.48 in Rain , Thunderstorm Heavy Thunderstorms and Rain
1:21 AM 68.0 °F - 66.2 °F 94% 29.74 in 3.0 mi WSW 8.1 mph 18.4 mph 0.54 in Rain , Thunderstorm Heavy Thunderstorms and Rain
1:54 AM 68.0 °F - 66.0 °F 93% 29.74 in 4.0 mi WSW 8.1 mph - 0.68 in Rain , Thunderstorm Thunderstorms and Rain
1:59 AM 66.2 °F - 66.2 °F 100% 29.74 in 1.2 mi WSW 10.4 mph - 0.05 in Rain , Thunderstorm Heavy Thunderstorms and Rain
2:11 AM 66.2 °F - 64.4 °F 94% 29.74 in 3.0 mi SW 8.1 mph - 0.17 in Rain , Thunderstorm Heavy Thunderstorms and Rain
2:20 AM 66.2 °F - 64.4 °F 94% 29.73 in 4.0 mi West 8.1 mph - 0.21 in Rain , Thunderstorm Heavy Thunderstorms and Rain
2:52 AM 60.8 °F - 59.0 °F 94% 29.72 in 4.0 mi West 11.5 mph - 0.37 in Rain , Thunderstorm Heavy Thunderstorms and Rain
2:54 AM 61.0 °F - 59.0 °F 93% 29.72 in 4.0 mi West 12.7 mph - 0.38 in Rain , Thunderstorm Thunderstorms and Rain
3:06 AM 60.8 °F - 57.2 °F 88% 29.74 in 3.0 mi WSW 9.2 mph - 0.02 in Rain Rain
3:54 AM 57.0 °F - 55.0 °F 93% 29.71 in 4.0 mi WNW 11.5 mph - 0.16 in Rain Rain
4:54 AM 55.0 °F - 53.1 °F 93% 29.72 in 3.0 mi NW 3.5 mph - 0.15 in Rain Heavy Rain
5:20 AM 55.4 °F - 53.6 °F 94% 29.73 in 4.0 mi WSW 4.6 mph - 0.08 in Rain Rain
5:38 AM 55.4 °F - 53.6 °F 94% 29.72 in 3.0 mi West 3.5 mph - 0.15 in Rain Rain
5:54 AM 55.0 °F - 53.1 °F 93% 29.69 in 4.0 mi Calm Calm - 0.18 in Rain Light Rain
6:00 AM 55.4 °F - 53.6 °F 94% 29.71 in 5.0 mi West 3.5 mph - 0.01 in Rain Light Rain
6:05 AM 55.4 °F - 53.6 °F 94% 29.72 in 4.0 mi West 6.9 mph - 0.01 in Rain Light Rain
6:54 AM 54.0 °F - 52.0 °F 93% 29.74 in 3.0 mi WNW 17.3 mph 21.9 mph 0.03 in Rain Rain
7:03 AM 53.6 °F - 51.8 °F 94% 29.74 in 2.0 mi WNW 12.7 mph - 0.01 in Rain Light Rain
7:21 AM 53.6 °F - 51.8 °F 94% 29.75 in 4.0 mi WNW 11.5 mph - 0.07 in Rain Heavy Rain
7:54 AM 51.1 °F - 50.0 °F 96% 29.77 in 6.0 mi West 11.5 mph - 0.18 in Rain Rain
8:54 AM 50.0 °F - 48.0 °F 93% 29.75 in 7.0 mi NW 10.4 mph - 0.19 in Rain Rain
9:54 AM 50.0 °F - 46.9 °F 89% 29.78 in 10.0 mi WNW 8.1 mph - 0.08 in Rain Light Rain
10:38 AM 48.2 °F - 46.4 °F 93% 29.78 in 7.0 mi NW 8.1 mph - 0.10 in Rain Light Rain
10:50 AM 48.2 °F - 46.4 °F 93% 29.79 in 10.0 mi WNW 10.4 mph - 0.10 in Rain Light Rain
10:54 AM 48.9 °F - 46.0 °F 90% 29.79 in 10.0 mi WNW 6.9 mph - 0.10 in Rain Light Rain
11:10 AM 48.2 °F - 46.4 °F 93% 29.80 in 6.0 mi NW 8.1 mph - 0.03 in Rain Rain
11:54 AM 48.2 °F - 46.4 °F 93% 29.77 in 10.0 mi NW 6.9 mph - N/A Rain Light Rain
12:54 PM 48.0 °F - 45.0 °F 89% 29.75 in 7.0 mi WNW 5.8 mph - 0.07 in Rain Rain
1:18 PM 48.2 °F - 44.6 °F 87% 29.73 in 7.0 mi Calm Calm - 0.02 in Rain Rain
1:54 PM 48.9 °F - 46.0 °F 90% 29.70 in 7.0 mi NNW 5.8 mph - 0.08 in Rain Rain
2:54 PM 48.9 °F - 46.0 °F 90% 29.73 in 10.0 mi WNW 10.4 mph - 0.01 in Rain Light Rain
3:54 PM 48.9 °F - 46.0 °F 90% 29.69 in 10.0 mi WNW 8.1 mph - 0.00 in   Overcast
4:49 PM 48.2 °F - 44.6 °F 87% 29.71 in 10.0 mi WNW 10.4 mph - N/A   Overcast
4:54 PM 50.0 °F - 45.0 °F 83% 29.72 in 10.0 mi WNW 10.4 mph - N/A   Overcast
5:54 PM 48.9 °F - 43.0 °F 80% 29.75 in 10.0 mi WNW 10.4 mph - N/A   Overcast
6:26 PM 50.0 °F - 42.8 °F 76% 29.75 in 10.0 mi West 11.5 mph - N/A   Mostly Cloudy
6:54 PM 50.0 °F - 42.1 °F 74% 29.75 in 10.0 mi WSW 8.1 mph - N/A   Mostly Cloudy
7:12 PM 48.2 °F - 42.8 °F 82% 29.74 in 10.0 mi SW 3.5 mph - N/A   Scattered Clouds
7:54 PM 46.0 °F 44.8 °F 42.1 °F 86% 29.75 in 10.0 mi SW 3.5 mph - N/A   Partly Cloudy
8:54 PM 46.0 °F - 42.1 °F 86% 29.77 in 10.0 mi Calm Calm - N/A   Partly Cloudy
9:54 PM 45.0 °F 43.5 °F 41.0 °F 86% 29.79 in 10.0 mi WSW 3.5 mph - N/A   Partly Cloudy
10:54 PM 45.0 °F 43.5 °F 41.0 °F 86% 29.81 in 10.0 mi WSW 3.5 mph - N/A   Clear
11:54 PM 43.0 °F 41.3 °F 41.0 °F 93% 29.82 in 10.0 mi SSW 3.5 mph - N/A   Partly Cloudy